Volver al catálogo

FENGYUN 1C DEB

ActivoPO
NORAD 30625·DEBRIS·🇨🇳 China

Lanzado May 10, 1999 desde Taiyuan Satellite Launch Center

Loading…

Próximos Pases (próximas 24 horas)

TLE

ActualizadoSource: Space-Track

Época: Sep 14, 2026, 09:12 UTC

1 30625U 99025ANG 26257.38358860  .00006343  00000-0  17211-2 0  9994
2 30625  98.9230 232.1896 0041522 196.1872 163.7995 14.47457671  6662

Sigue FENGYUN 1C DEB en tiempo real con AllMySat

Download on the App Store